Time,TemperatureF,DewpointF,PressureIn,WindDirection,WindDirectionDegrees,WindSpeedMPH,WindSpeedGustMPH,Humidity,HourlyPrecipIn,Conditions,Clouds,dailyrainin,SolarRadiationWatts/m^2,SoftwareType,DateUTC
2013-05-16 00:01:00,55.7,48.9,29.61,West,265,7.0,7.0,78,0.00,,,0.13,0.0,WeatherDisplay:10.37,2013-05-16 04:01:00,
2013-05-16 00:02:00,55.7,48.9,29.61,WSW,252,10.4,10.4,78,0.00,RA,,0.00,0.0,WeatherDisplay:10.37,2013-05-16 04:02:00,
2013-05-16 00:05:00,55.7,48.9,29.61,WSW,250,9.2,9.2,78,0.00,RA,,0.00,0.0,WeatherDisplay:10.37,2013-05-16 04:05:00,
2013-05-16 00:06:00,55.7,48.9,29.61,West,263,6.9,6.9,78,0.00,RA,,0.00,0.0,WeatherDisplay:10.37,2013-05-16 04:06:00,
2013-05-16 00:11:00,55.6,48.8,29.61,West,261,8.1,8.1,78,0.00,,,0.00,0.0,WeatherDisplay:10.37,2013-05-16 04:11:00,
2013-05-16 00:16:00,55.4,48.7,29.61,WSW,258,8.1,8.1,78,0.00,,,0.00,0.0,WeatherDisplay:10.37,2013-05-16 04:16:00,
2013-05-16 00:21:00,55.3,48.9,29.61,WSW,253,5.8,5.8,79,0.00,,,0.00,0.0,WeatherDisplay:10.37,2013-05-16 04:21:00,
2013-05-16 00:26:00,55.1,48.7,29.61,WSW,252,7.0,7.0,79,0.00,,,0.00,0.0,WeatherDisplay:10.37,2013-05-16 04:26:00,
2013-05-16 00:31:00,55.1,48.4,29.61,West,269,11.5,11.5,78,0.00,,,0.00,0.0,WeatherDisplay:10.37,2013-05-16 04:31:00,
2013-05-16 00:36:00,55.1,48.0,29.62,SW,236,9.2,9.2,77,0.00,,,0.00,0.0,WeatherDisplay:10.37,2013-05-16 04:36:00,
2013-05-16 00:41:00,55.1,48.0,29.62,WSW,237,9.2,9.2,77,0.00,,,0.00,0.0,WeatherDisplay:10.37,2013-05-16 04:41:00,
2013-05-16 00:46:00,55.1,48.0,29.62,WSW,238,10.4,10.4,77,0.00,,,0.00,0.0,WeatherDisplay:10.37,2013-05-16 04:46:00,
2013-05-16 00:51:00,55.0,47.6,29.62,WSW,246,7.0,7.0,76,0.00,,,0.00,0.0,WeatherDisplay:10.37,2013-05-16 04:51:00,
2013-05-16 00:56:00,54.8,47.7,29.62,WSW,248,11.5,11.5,77,0.00,,,0.00,0.0,WeatherDisplay:10.37,2013-05-16 04:56:00,
2013-05-16 01:01:00,54.7,47.6,29.62,WSW,242,6.9,6.9,77,0.00,,,0.00,0.0,WeatherDisplay:10.37,2013-05-16 05:01:00,
2013-05-16 01:06:00,54.5,47.4,29.62,WSW,258,9.0,9.0,77,0.00,,,0.00,0.0,WeatherDisplay:10.37,2013-05-16 05:06:00,
2013-05-16 01:11:00,54.3,46.9,29.62,WSW,258,9.2,9.2,76,0.00,,,0.00,0.0,WeatherDisplay:10.37,2013-05-16 05:11:00,
2013-05-16 01:16:00,54.1,47.0,29.62,West,265,6.9,6.9,77,0.00,,,0.00,0.0,WeatherDisplay:10.37,2013-05-16 05:16:00,
2013-05-16 01:21:00,53.9,46.9,29.62,WSW,255,9.2,9.2,77,0.00,,,0.00,0.0,WeatherDisplay:10.37,2013-05-16 05:21:00,
2013-05-16 01:26:00,53.7,46.7,29.62,West,272,6.9,6.9,77,0.00,,,0.00,0.0,WeatherDisplay:10.37,2013-05-16 05:26:00,
2013-05-16 01:31:00,53.7,46.3,29.62,WSW,254,9.2,9.2,76,0.00,,,0.00,0.0,WeatherDisplay:10.37,2013-05-16 05:31:00,
2013-05-16 01:36:00,53.6,45.9,29.62,West,269,11.5,11.5,75,0.00,,,0.00,0.0,WeatherDisplay:10.37,2013-05-16 05:36:00,
2013-05-16 01:41:00,53.6,45.9,29.62,West,261,8.1,8.1,75,0.00,,,0.00,0.0,WeatherDisplay:10.37,2013-05-16 05:41:00,
2013-05-16 01:46:00,53.4,45.7,29.62,West,266,10.4,10.4,75,0.00,,,0.00,0.0,WeatherDisplay:10.37,2013-05-16 05:46:00,
2013-05-16 01:51:00,53.4,45.3,29.62,West,269,11.5,11.5,74,0.00,,,0.00,0.0,WeatherDisplay:10.37,2013-05-16 05:51:00,
2013-05-16 01:56:00,53.3,45.2,29.63,West,269,9.2,9.2,74,0.00,,,0.00,0.0,WeatherDisplay:10.37,2013-05-16 05:56:00,
2013-05-16 02:01:00,53.2,45.1,29.62,West,279,11.0,11.0,74,0.00,,,0.00,0.0,WeatherDisplay:10.37,2013-05-16 06:01:00,
2013-05-16 02:06:00,53.0,44.9,29.62,WSW,253,9.2,9.2,74,0.00,,,0.00,0.0,WeatherDisplay:10.37,2013-05-16 06:06:00,
2013-05-16 02:11:00,52.9,44.8,29.62,WSW,239,8.0,8.0,74,0.00,,,0.00,0.0,WeatherDisplay:10.37,2013-05-16 06:11:00,
2013-05-16 02:16:00,52.7,44.3,29.62,West,260,10.4,10.4,73,0.00,,,0.00,0.0,WeatherDisplay:10.37,2013-05-16 06:16:00,
2013-05-16 02:21:00,52.6,44.2,29.62,WSW,256,9.2,9.2,73,0.00,,,0.00,0.0,WeatherDisplay:10.37,2013-05-16 06:21:00,
2013-05-16 02:26:00,52.5,44.1,29.62,WSW,250,9.2,9.2,73,0.00,,,0.00,0.0,WeatherDisplay:10.37,2013-05-16 06:26:00,
2013-05-16 02:31:00,52.4,44.0,29.62,West,262,7.0,7.0,73,0.00,,,0.00,0.0,WeatherDisplay:10.37,2013-05-16 06:31:00,
2013-05-16 02:36:00,52.2,43.4,29.62,West,267,10.4,10.4,72,0.00,,,0.00,0.0,WeatherDisplay:10.37,2013-05-16 06:36:00,
2013-05-16 02:41:00,52.1,43.3,29.62,WSW,246,8.1,8.1,72,0.00,,,0.00,0.0,WeatherDisplay:10.37,2013-05-16 06:41:00,
2013-05-16 02:46:00,52.0,43.3,29.62,West,259,6.9,6.9,72,0.00,,,0.00,0.0,WeatherDisplay:10.37,2013-05-16 06:46:00,
2013-05-16 02:51:00,51.9,42.8,29.62,WSW,249,6.0,6.0,71,0.00,,,0.00,0.0,WeatherDisplay:10.37,2013-05-16 06:51:00,
2013-05-16 02:56:00,51.9,42.8,29.62,WSW,252,8.0,8.0,71,0.00,,,0.00,0.0,WeatherDisplay:10.37,2013-05-16 06:56:00,
2013-05-16 03:01:00,51.8,42.7,29.62,WSW,257,6.0,6.0,71,0.00,,,0.00,0.0,WeatherDisplay:10.37,2013-05-16 07:01:00,
2013-05-16 03:06:00,51.7,42.6,29.61,WSW,254,8.0,8.0,71,0.00,,,0.00,0.0,WeatherDisplay:10.37,2013-05-16 07:06:00,
2013-05-16 03:11:00,51.7,42.6,29.61,WSW,248,6.9,6.9,71,0.00,,,0.00,0.0,WeatherDisplay:10.37,2013-05-16 07:11:00,
2013-05-16 03:16:00,51.5,42.4,29.60,WSW,257,7.0,7.0,71,0.00,,,0.00,0.0,WeatherDisplay:10.37,2013-05-16 07:16:00,
2013-05-16 03:21:00,51.4,42.3,29.60,WSW,239,8.0,8.0,71,0.00,,,0.00,0.0,WeatherDisplay:10.37,2013-05-16 07:21:00,
2013-05-16 03:28:00,51.3,41.8,29.60,WSW,248,11.5,11.5,70,0.00,,,0.00,0.0,WeatherDisplay:10.37,2013-05-16 07:28:00,
2013-05-16 03:33:00,51.2,41.7,29.60,WSW,257,11.5,11.5,70,0.00,,,0.00,0.0,WeatherDisplay:10.37,2013-05-16 07:33:00,
2013-05-16 03:38:00,51.4,41.6,29.60,WSW,241,11.5,11.5,69,0.00,,,0.00,0.0,WeatherDisplay:10.37,2013-05-16 07:38:00,
2013-05-16 03:43:00,51.5,41.7,29.60,West,262,9.2,9.2,69,0.00,,,0.00,0.0,WeatherDisplay:10.37,2013-05-16 07:43:00,
2013-05-16 03:48:00,51.5,41.3,29.60,West,265,10.0,10.0,68,0.00,,,0.00,0.0,WeatherDisplay:10.37,2013-05-16 07:48:00,
2013-05-16 03:53:00,51.6,41.4,29.60,West,259,8.1,8.1,68,0.00,,,0.00,0.0,WeatherDisplay:10.37,2013-05-16 07:53:00,
2013-05-16 03:58:00,51.6,41.4,29.60,West,260,12.0,12.0,68,0.00,,,0.00,0.0,WeatherDisplay:10.37,2013-05-16 07:58:00,
2013-05-16 04:03:00,51.5,40.9,29.60,WSW,252,6.9,6.9,67,0.00,,,0.00,0.0,WeatherDisplay:10.37,2013-05-16 08:03:00,
2013-05-16 04:08:00,51.4,40.8,29.60,West,266,9.2,9.2,67,0.00,,,0.00,0.0,WeatherDisplay:10.37,2013-05-16 08:08:00,
2013-05-16 04:13:00,51.4,40.8,29.60,WSW,252,9.2,9.2,67,0.00,,,0.00,0.0,WeatherDisplay:10.37,2013-05-16 08:13:00,
2013-05-16 04:18:00,51.4,41.2,29.60,West,259,7.0,7.0,68,0.00,,,0.00,0.0,WeatherDisplay:10.37,2013-05-16 08:18:00,
2013-05-16 04:23:00,51.2,41.0,29.60,West,276,11.0,11.0,68,0.00,,,0.00,0.0,WeatherDisplay:10.37,2013-05-16 08:23:00,
2013-05-16 04:28:00,51.1,40.9,29.60,WSW,243,8.1,8.1,68,0.00,,,0.00,0.0,WeatherDisplay:10.37,2013-05-16 08:28:00,
2013-05-16 04:33:00,50.9,40.7,29.60,West,266,9.2,9.2,68,0.00,,,0.00,0.0,WeatherDisplay:10.37,2013-05-16 08:33:00,
2013-05-16 04:38:00,51.0,40.8,29.60,West,261,8.1,8.1,68,0.00,,,0.00,0.0,WeatherDisplay:10.37,2013-05-16 08:38:00,
2013-05-16 04:43:00,51.0,40.8,29.60,WSW,257,8.1,8.1,68,0.00,,,0.00,0.0,WeatherDisplay:10.37,2013-05-16 08:43:00,
2013-05-16 04:48:00,50.8,40.6,29.60,WSW,244,6.0,6.0,68,0.00,,,0.00,0.0,WeatherDisplay:10.37,2013-05-16 08:48:00,
2013-05-16 04:53:00,50.6,40.4,29.60,West,263,5.8,5.8,68,0.00,,,0.00,0.0,WeatherDisplay:10.37,2013-05-16 08:53:00,
2013-05-16 04:58:00,50.6,40.4,29.60,West,264,8.1,8.1,68,0.00,,,0.00,0.0,WeatherDisplay:10.37,2013-05-16 08:58:00,
2013-05-16 05:03:00,50.5,40.3,29.60,WSW,250,9.2,9.2,68,0.00,,,0.00,0.0,WeatherDisplay:10.37,2013-05-16 09:03:00,
2013-05-16 05:08:00,50.5,40.3,29.60,West,263,9.2,9.2,68,0.00,,,0.00,0.0,WeatherDisplay:10.37,2013-05-16 09:08:00,
2013-05-16 05:13:00,50.7,40.5,29.60,WSW,244,8.0,8.0,68,0.00,,,0.00,0.0,WeatherDisplay:10.37,2013-05-16 09:13:00,
2013-05-16 05:18:00,50.8,40.2,29.60,West,261,11.5,11.5,67,0.00,,,0.00,0.0,WeatherDisplay:10.37,2013-05-16 09:18:00,
2013-05-16 05:23:00,50.9,40.3,29.61,WSW,252,9.2,9.2,67,0.00,,,0.00,0.0,WeatherDisplay:10.37,2013-05-16 09:23:00,
2013-05-16 05:28:00,51.1,40.5,29.60,WSW,254,10.4,10.4,67,0.00,,,0.00,5.0,WeatherDisplay:10.37,2013-05-16 09:28:00,
2013-05-16 05:33:00,51.1,40.5,29.61,WSW,248,8.1,8.1,67,0.00,,,0.00,7.0,WeatherDisplay:10.37,2013-05-16 09:33:00,
2013-05-16 05:38:00,51.0,40.0,29.61,WSW,253,11.5,11.5,66,0.00,,,0.00,11.0,WeatherDisplay:10.37,2013-05-16 09:38:00,
2013-05-16 05:43:00,51.0,40.4,29.61,West,281,7.0,7.0,67,0.00,,,0.00,12.0,WeatherDisplay:10.37,2013-05-16 09:43:00,
2013-05-16 05:48:00,51.0,40.4,29.61,WSW,251,11.0,11.0,67,0.00,,,0.00,19.0,WeatherDisplay:10.37,2013-05-16 09:48:00,
2013-05-16 05:53:00,51.0,40.4,29.61,WSW,246,9.2,9.2,67,0.00,,,0.00,23.0,WeatherDisplay:10.37,2013-05-16 09:53:00,
2013-05-16 05:58:00,51.1,40.5,29.61,West,260,10.4,10.4,67,0.00,,,0.00,18.0,WeatherDisplay:10.37,2013-05-16 09:58:00,
2013-05-16 06:03:00,51.3,40.7,29.61,WSW,256,10.0,10.0,67,0.00,,,0.00,19.0,WeatherDisplay:10.37,2013-05-16 10:03:00,
2013-05-16 06:08:00,51.4,40.4,29.61,West,262,8.1,8.1,66,0.00,,,0.00,21.0,WeatherDisplay:10.37,2013-05-16 10:08:00,
2013-05-16 06:13:00,51.5,40.5,29.62,West,261,11.5,11.5,66,0.00,,,0.00,26.0,WeatherDisplay:10.37,2013-05-16 10:13:00,
2013-05-16 06:18:00,51.7,40.7,29.62,West,259,6.9,6.9,66,0.00,,,0.00,25.0,WeatherDisplay:10.37,2013-05-16 10:18:00,
2013-05-16 06:23:00,51.8,40.4,29.62,WSW,256,13.8,13.8,65,0.00,,,0.00,26.0,WeatherDisplay:10.37,2013-05-16 10:23:00,
2013-05-16 06:28:00,51.9,40.9,29.62,West,266,9.2,9.2,66,0.00,,,0.00,28.0,WeatherDisplay:10.37,2013-05-16 10:28:00,
2013-05-16 06:33:00,52.0,40.6,29.62,WSW,242,9.2,9.2,65,0.00,,,0.00,28.0,WeatherDisplay:10.37,2013-05-16 10:33:00,
2013-05-16 06:38:00,52.1,40.7,29.62,West,259,10.4,10.4,65,0.00,,,0.00,30.0,WeatherDisplay:10.37,2013-05-16 10:38:00,
2013-05-16 06:43:00,52.3,40.9,29.63,WSW,257,11.5,11.5,65,0.00,,,0.00,32.0,WeatherDisplay:10.37,2013-05-16 10:43:00,
2013-05-16 06:48:00,52.4,41.0,29.63,SW,236,11.5,11.5,65,0.00,,,0.00,35.0,WeatherDisplay:10.37,2013-05-16 10:48:00,
2013-05-16 06:53:00,52.5,41.1,29.63,WSW,255,8.1,8.1,65,0.00,,,0.00,33.0,WeatherDisplay:10.37,2013-05-16 10:53:00,
2013-05-16 06:58:00,52.7,40.9,29.63,West,266,8.1,8.1,64,0.00,,,0.00,39.0,WeatherDisplay:10.37,2013-05-16 10:58:00,
2013-05-16 07:03:00,52.7,40.9,29.63,West,260,11.5,11.5,64,0.00,OVC,,0.00,35.0,WeatherDisplay:10.37,2013-05-16 11:03:00,
2013-05-16 07:08:00,53.0,40.7,29.63,WSW,242,10.4,10.4,63,0.00,OVC,,0.00,37.0,WeatherDisplay:10.37,2013-05-16 11:08:00,
2013-05-16 07:13:00,53.1,40.8,29.62,West,266,6.9,6.9,63,0.00,OVC,,0.00,54.0,WeatherDisplay:10.37,2013-05-16 11:13:00,
2013-05-16 07:18:00,53.3,41.0,29.63,West,265,6.9,6.9,63,0.00,OVC,,0.00,44.0,WeatherDisplay:10.37,2013-05-16 11:18:00,
2013-05-16 07:23:00,53.5,41.2,29.63,SSE,157,6.9,6.9,63,0.00,OVC,,0.00,44.0,WeatherDisplay:10.37,2013-05-16 11:23:00,
2013-05-16 07:28:00,53.7,41.4,29.63,WNW,290,8.1,8.1,63,0.00,OVC,,0.00,49.0,WeatherDisplay:10.37,2013-05-16 11:28:00,
2013-05-16 07:33:00,53.9,41.2,29.63,West,276,9.2,9.2,62,0.00,OVC,,0.00,53.0,WeatherDisplay:10.37,2013-05-16 11:33:00,
2013-05-16 07:38:00,54.0,41.3,29.63,SSW,212,10.4,10.4,62,0.00,OVC,,0.00,79.0,WeatherDisplay:10.37,2013-05-16 11:38:00,
2013-05-16 07:43:00,54.2,41.5,29.64,West,259,10.4,10.4,62,0.00,OVC,,0.00,130.0,WeatherDisplay:10.37,2013-05-16 11:43:00,
2013-05-16 07:48:00,54.5,41.7,29.64,West,261,8.1,8.1,62,0.00,OVC,,0.00,153.0,WeatherDisplay:10.37,2013-05-16 11:48:00,
2013-05-16 07:53:00,54.8,42.0,29.64,WSW,243,6.0,6.0,62,0.00,OVC,,0.00,441.0,WeatherDisplay:10.37,2013-05-16 11:53:00,
2013-05-16 07:58:00,55.1,41.5,29.64,West,268,11.0,11.0,60,0.00,OVC,,0.00,417.0,WeatherDisplay:10.37,2013-05-16 11:58:00,
2013-05-16 08:03:00,55.5,41.4,29.64,West,260,9.2,9.2,59,0.00,OVC,,0.00,468.0,WeatherDisplay:10.37,2013-05-16 12:03:00,
2013-05-16 08:08:00,55.9,42.6,29.64,West,273,7.0,7.0,61,0.00,OVC,,0.00,482.0,WeatherDisplay:10.37,2013-05-16 12:08:00,
2013-05-16 08:13:00,56.3,42.6,29.64,West,271,9.2,9.2,60,0.00,OVC,,0.00,501.0,WeatherDisplay:10.37,2013-05-16 12:13:00,
2013-05-16 08:18:00,56.6,42.0,29.64,West,270,6.9,6.9,58,0.00,OVC,,0.00,513.0,WeatherDisplay:10.37,2013-05-16 12:18:00,
2013-05-16 08:23:00,56.9,42.3,29.64,West,271,10.4,10.4,58,0.00,OVC,,0.00,536.0,WeatherDisplay:10.37,2013-05-16 12:23:00,
2013-05-16 08:28:00,57.2,42.1,29.64,West,261,4.0,4.0,57,0.00,OVC,,0.00,552.0,WeatherDisplay:10.37,2013-05-16 12:28:00,
2013-05-16 08:33:00,57.6,42.9,29.64,West,274,5.0,5.0,58,0.00,OVC,,0.00,566.0,WeatherDisplay:10.37,2013-05-16 12:33:00,
2013-05-16 08:38:00,57.9,41.8,29.64,WSW,248,11.5,11.5,55,0.00,OVC,,0.00,582.0,WeatherDisplay:10.37,2013-05-16 12:38:00,
2013-05-16 08:43:00,58.4,40.3,29.64,WNW,291,10.4,10.4,51,0.00,OVC,,0.00,598.0,WeatherDisplay:10.37,2013-05-16 12:43:00,
2013-05-16 08:48:00,58.6,40.5,29.64,West,269,16.1,16.1,51,0.00,OVC,,0.00,612.0,WeatherDisplay:10.37,2013-05-16 12:48:00,
2013-05-16 08:53:00,58.9,41.3,29.64,West,265,9.2,9.2,52,0.00,OVC,,0.00,629.0,WeatherDisplay:10.37,2013-05-16 12:53:00,
2013-05-16 08:58:00,59.3,41.7,29.64,WSW,257,6.9,6.9,52,0.00,OVC,,0.00,643.0,WeatherDisplay:10.37,2013-05-16 12:58:00,
2013-05-16 09:03:00,59.5,40.3,29.64,WSW,256,12.7,12.7,49,0.00,OVC,,0.00,661.0,WeatherDisplay:10.37,2013-05-16 13:03:00,
2013-05-16 09:08:00,59.5,40.8,29.64,West,269,10.0,10.0,50,0.00,OVC,,0.00,670.0,WeatherDisplay:10.37,2013-05-16 13:08:00,
2013-05-16 09:13:00,59.6,41.4,29.64,SW,223,11.5,11.5,51,0.00,OVC,,0.00,687.0,WeatherDisplay:10.37,2013-05-16 13:13:00,
2013-05-16 09:18:00,59.5,40.3,29.64,WSW,258,9.2,9.2,49,0.00,OVC,,0.00,701.0,WeatherDisplay:10.37,2013-05-16 13:18:00,
2013-05-16 09:23:00,59.5,40.3,29.64,WSW,253,15.0,15.0,49,0.00,OVC,,0.00,715.0,WeatherDisplay:10.37,2013-05-16 13:23:00,
2013-05-16 09:28:00,59.5,40.3,29.64,WSW,242,19.6,19.6,49,0.00,OVC,,0.00,731.0,WeatherDisplay:10.37,2013-05-16 13:28:00,
2013-05-16 09:33:00,59.4,39.1,29.64,SW,217,16.1,16.1,47,0.00,OVC,,0.00,744.0,WeatherDisplay:10.37,2013-05-16 13:33:00,
2013-05-16 09:38:00,59.5,40.3,29.64,WNW,284,25.3,25.3,49,0.00,OVC,,0.00,754.0,WeatherDisplay:10.37,2013-05-16 13:38:00,
2013-05-16 09:43:00,59.6,39.3,29.64,West,275,19.6,19.6,47,0.00,OVC,,0.00,768.0,WeatherDisplay:10.37,2013-05-16 13:43:00,
2013-05-16 09:48:00,59.8,40.6,29.64,West,269,18.4,18.4,49,0.00,OVC,,0.00,779.0,WeatherDisplay:10.37,2013-05-16 13:48:00,
2013-05-16 09:53:00,60.2,40.4,29.64,WSW,254,15.0,15.0,48,0.00,OVC,,0.00,786.0,WeatherDisplay:10.37,2013-05-16 13:53:00,
2013-05-16 09:58:00,60.7,40.3,29.64,West,274,12.7,12.7,47,0.00,OVC,,0.00,802.0,WeatherDisplay:10.37,2013-05-16 13:58:00,
2013-05-16 10:03:00,60.8,40.4,29.64,WNW,296,17.3,17.3,47,0.00,OVC,,0.00,816.0,WeatherDisplay:10.37,2013-05-16 14:03:00,
2013-05-16 10:08:00,61.2,40.2,29.64,WSW,246,13.0,13.0,46,0.00,OVC,,0.00,824.0,WeatherDisplay:10.37,2013-05-16 14:08:00,
2013-05-16 10:13:00,61.6,41.7,29.64,WNW,301,13.8,13.8,48,0.00,OVC,,0.00,835.0,WeatherDisplay:10.37,2013-05-16 14:13:00,
2013-05-16 10:18:00,62.0,41.5,29.64,WSW,237,13.8,13.8,47,0.00,OVC,,0.00,842.0,WeatherDisplay:10.37,2013-05-16 14:18:00,
2013-05-16 10:23:00,62.3,41.2,29.64,SW,236,9.2,9.2,46,0.00,OVC,,0.00,854.0,WeatherDisplay:10.37,2013-05-16 14:23:00,
2013-05-16 10:28:00,62.7,40.5,29.64,WSW,257,16.1,16.1,44,0.00,BKN,,0.00,863.0,WeatherDisplay:10.37,2013-05-16 14:28:00,
2013-05-16 10:33:00,62.7,39.9,29.64,West,269,15.0,15.0,43,0.00,SCT,,0.00,874.0,WeatherDisplay:10.37,2013-05-16 14:33:00,
2013-05-16 10:38:00,63.0,40.1,29.64,WSW,243,11.5,11.5,43,0.00,CLR,,0.00,882.0,WeatherDisplay:10.37,2013-05-16 14:38:00,
2013-05-16 10:43:00,63.3,39.8,29.64,WSW,256,16.1,16.1,42,0.00,CLR,,0.00,891.0,WeatherDisplay:10.37,2013-05-16 14:43:00,
2013-05-16 10:48:00,63.4,40.5,29.65,SW,231,13.8,13.8,43,0.00,CLR,,0.00,898.0,WeatherDisplay:10.37,2013-05-16 14:48:00,
2013-05-16 10:53:00,63.6,38.8,29.64,West,281,18.4,18.4,40,0.00,CLR,,0.00,907.0,WeatherDisplay:10.37,2013-05-16 14:53:00,
2013-05-16 10:58:00,63.6,39.5,29.64,WSW,257,16.1,16.1,41,0.00,CLR,,0.00,918.0,WeatherDisplay:10.37,2013-05-16 14:58:00,
2013-05-16 11:03:00,63.8,39.6,29.64,West,277,17.3,17.3,41,0.00,CLR,,0.00,925.0,WeatherDisplay:10.37,2013-05-16 15:03:00,
2013-05-16 11:08:00,64.1,40.5,29.64,SSE,167,15.0,15.0,42,0.00,CLR,,0.00,935.0,WeatherDisplay:10.37,2013-05-16 15:08:00,
2013-05-16 11:13:00,64.3,40.1,29.64,West,268,12.7,12.7,41,0.00,CLR,,0.00,937.0,WeatherDisplay:10.37,2013-05-16 15:13:00,
2013-05-16 11:18:00,64.6,39.7,29.64,WSW,252,17.0,17.0,40,0.00,CLR,,0.00,942.0,WeatherDisplay:10.37,2013-05-16 15:18:00,
2013-05-16 11:23:00,64.7,38.5,29.64,SW,231,11.0,11.0,38,0.00,CLR,,0.00,949.0,WeatherDisplay:10.37,2013-05-16 15:23:00,
2013-05-16 11:28:00,64.7,38.5,29.64,SW,229,12.0,12.0,38,0.00,CLR,,0.00,951.0,WeatherDisplay:10.37,2013-05-16 15:28:00,
2013-05-16 11:33:00,64.9,40.6,29.64,WSW,241,19.6,19.6,41,0.00,CLR,,0.00,960.0,WeatherDisplay:10.37,2013-05-16 15:33:00,
2013-05-16 11:38:00,65.2,41.5,29.64,WSW,242,12.7,12.7,42,0.00,CLR,,0.00,963.0,WeatherDisplay:10.37,2013-05-16 15:38:00,
2013-05-16 11:43:00,65.6,40.6,29.63,West,264,18.4,18.4,40,0.00,CLR,,0.00,970.0,WeatherDisplay:10.37,2013-05-16 15:43:00,
2013-05-16 11:48:00,65.7,40.1,29.63,West,270,18.4,18.4,39,0.00,CLR,,0.00,977.0,WeatherDisplay:10.37,2013-05-16 15:48:00,
2013-05-16 11:53:00,66.1,41.1,29.63,West,271,18.4,18.4,40,0.00,CLR,,0.00,983.0,WeatherDisplay:10.37,2013-05-16 15:53:00,
2013-05-16 11:58:00,65.8,39.5,29.63,WSW,247,21.9,21.9,38,0.00,CLR,,0.00,986.0,WeatherDisplay:10.37,2013-05-16 15:58:00,
2013-05-16 12:03:00,66.2,40.5,29.62,West,270,14.0,14.0,39,0.00,CLR,,0.00,1002.0,WeatherDisplay:10.37,2013-05-16 16:03:00,
2013-05-16 12:08:00,66.6,40.2,29.62,West,262,20.0,20.0,38,0.00,CLR,,0.00,998.0,WeatherDisplay:10.37,2013-05-16 16:08:00,
2013-05-16 12:13:00,67.0,39.1,29.62,WSW,253,19.6,19.6,36,0.00,CLR,,0.00,1034.0,WeatherDisplay:10.37,2013-05-16 16:13:00,
2013-05-16 12:18:00,67.1,39.2,29.62,WSW,250,25.3,25.3,36,0.00,CLR,,0.00,1060.0,WeatherDisplay:10.37,2013-05-16 16:18:00,
2013-05-16 12:23:00,67.5,41.0,29.62,SSW,196,17.3,17.3,38,0.00,CLR,,0.00,1042.0,WeatherDisplay:10.37,2013-05-16 16:23:00,
2013-05-16 12:28:00,67.8,39.9,29.62,West,269,18.4,18.4,36,0.00,CLR,,0.00,1056.0,WeatherDisplay:10.37,2013-05-16 16:28:00,
2013-05-16 12:33:00,67.9,39.9,29.62,West,278,17.3,17.3,36,0.00,CLR,,0.00,1107.0,WeatherDisplay:10.37,2013-05-16 16:33:00,
2013-05-16 12:38:00,68.5,40.5,29.62,West,271,16.1,16.1,36,0.00,CLR,,0.00,1104.0,WeatherDisplay:10.37,2013-05-16 16:38:00,
2013-05-16 12:43:00,68.4,38.9,29.62,WNW,292,26.5,26.5,34,0.00,CLR,,0.00,1035.0,WeatherDisplay:10.37,2013-05-16 16:43:00,
2013-05-16 12:48:00,68.3,39.6,29.62,West,275,16.1,16.1,35,0.00,CLR,,0.00,1046.0,WeatherDisplay:10.37,2013-05-16 16:48:00,
2013-05-16 12:53:00,68.4,39.7,29.62,WSW,246,16.1,16.1,35,0.00,CLR,,0.00,1032.0,WeatherDisplay:10.37,2013-05-16 16:53:00,
2013-05-16 12:58:00,68.8,39.3,29.62,West,265,11.0,11.0,34,0.00,CLR,,0.00,1136.0,WeatherDisplay:10.37,2013-05-16 16:58:00,
2013-05-16 13:03:00,68.9,40.1,29.61,West,260,11.5,11.5,35,0.00,CLR,,0.00,223.0,WeatherDisplay:10.37,2013-05-16 17:03:00,
2013-05-16 13:08:00,68.7,40.7,29.61,West,267,19.6,19.6,36,0.00,CLR,,0.00,1083.0,WeatherDisplay:10.37,2013-05-16 17:08:00,
2013-05-16 13:13:00,68.9,40.1,29.61,WSW,258,19.6,19.6,35,0.00,CLR,,0.00,1065.0,WeatherDisplay:10.37,2013-05-16 17:13:00,
2013-05-16 13:18:00,68.9,39.4,29.61,SW,234,16.1,16.1,34,0.00,CLR,,0.00,1130.0,WeatherDisplay:10.37,2013-05-16 17:18:00,
2013-05-16 13:23:00,69.2,41.8,29.61,WSW,249,11.5,11.5,37,0.00,CLR,,0.00,1051.0,WeatherDisplay:10.37,2013-05-16 17:23:00,
2013-05-16 13:28:00,69.3,40.5,29.61,WSW,241,21.9,21.9,35,0.00,CLR,,0.00,1020.0,WeatherDisplay:10.37,2013-05-16 17:28:00,
2013-05-16 13:33:00,69.2,38.9,29.61,West,259,20.7,20.7,33,0.00,CLR,,0.00,1028.0,WeatherDisplay:10.37,2013-05-16 17:33:00,
2013-05-16 13:38:00,69.1,39.5,29.61,SW,225,18.4,18.4,34,0.00,CLR,,0.00,1048.0,WeatherDisplay:10.37,2013-05-16 17:38:00,
2013-05-16 13:43:00,69.1,38.8,29.61,SW,225,18.4,18.4,33,0.00,CLR,,0.00,1085.0,WeatherDisplay:10.37,2013-05-16 17:43:00,
2013-05-16 13:48:00,68.9,38.6,29.61,WSW,257,18.4,18.4,33,0.00,CLR,,0.00,1169.0,WeatherDisplay:10.37,2013-05-16 17:48:00,
2013-05-16 13:53:00,69.0,40.2,29.61,WSW,251,11.5,11.5,35,0.00,CLR,,0.00,1225.0,WeatherDisplay:10.37,2013-05-16 17:53:00,
2013-05-16 13:58:00,69.4,39.8,29.61,West,271,13.8,13.8,34,0.00,CLR,,0.00,1100.0,WeatherDisplay:10.37,2013-05-16 17:58:00,
2013-05-16 14:03:00,69.2,40.4,29.61,WSW,251,24.2,24.2,35,0.00,CLR,,0.00,1034.0,WeatherDisplay:10.37,2013-05-16 18:03:00,
2013-05-16 14:08:00,69.1,40.3,29.61,West,281,14.0,14.0,35,0.00,CLR,,0.00,1144.0,WeatherDisplay:10.37,2013-05-16 18:08:00,
2013-05-16 14:13:00,69.5,41.4,29.60,WNW,282,17.3,17.3,36,0.00,CLR,,0.00,1144.0,WeatherDisplay:10.37,2013-05-16 18:13:00,
2013-05-16 14:18:00,69.9,39.5,29.60,SSW,212,23.0,23.0,33,0.00,CLR,,0.00,1100.0,WeatherDisplay:10.37,2013-05-16 18:18:00,
2013-05-16 14:23:00,70.0,38.8,29.60,WNW,293,24.0,24.0,32,0.00,CLR,,0.00,253.0,WeatherDisplay:10.37,2013-05-16 18:23:00,
2013-05-16 14:28:00,69.5,39.9,29.60,WSW,247,16.1,16.1,34,0.00,SCT,,0.00,285.0,WeatherDisplay:10.37,2013-05-16 18:28:00,
2013-05-16 14:33:00,69.3,38.9,29.60,WSW,244,20.0,20.0,33,0.00,SCT,,0.00,311.0,WeatherDisplay:10.37,2013-05-16 18:33:00,
2013-05-16 14:38:00,69.3,38.2,29.61,WSW,238,26.5,26.5,32,0.00,SCT,,0.00,232.0,WeatherDisplay:10.37,2013-05-16 18:38:00,
2013-05-16 14:43:00,68.6,37.5,29.61,West,265,20.7,20.7,32,0.00,BKN,,0.00,225.0,WeatherDisplay:10.37,2013-05-16 18:43:00,
2013-05-16 14:48:00,68.2,38.0,29.61,WSW,248,16.1,16.1,33,0.00,BKN,,0.00,315.0,WeatherDisplay:10.37,2013-05-16 18:48:00,
2013-05-16 14:53:00,68.6,39.8,29.60,WSW,243,6.9,6.9,35,0.00,BKN,,0.00,287.0,WeatherDisplay:10.37,2013-05-16 18:53:00,
2013-05-16 14:59:00,69.5,39.9,29.60,West,263,16.1,16.1,34,0.00,SCT,,0.00,1013.0,WeatherDisplay:10.37,2013-05-16 18:59:00,
2013-05-16 15:04:00,70.1,40.4,29.61,West,264,15.0,15.0,34,0.00,CLR,,0.00,267.0,WeatherDisplay:10.37,2013-05-16 19:04:00,
2013-05-16 15:09:00,70.4,39.9,29.61,West,261,23.0,23.0,33,0.00,CLR,,0.00,554.0,WeatherDisplay:10.37,2013-05-16 19:09:00,
2013-05-16 15:15:00,70.4,39.1,29.60,WNW,284,11.5,11.5,32,0.00,FEW,,0.00,283.0,WeatherDisplay:10.37,2013-05-16 19:15:00,
2013-05-16 15:20:00,70.5,40.0,29.60,WSW,237,14.0,14.0,33,0.00,SCT,,0.00,239.0,WeatherDisplay:10.37,2013-05-16 19:20:00,
2013-05-16 15:25:00,70.3,43.5,29.60,SW,230,10.4,10.4,38,0.00,SCT,,0.00,977.0,WeatherDisplay:10.37,2013-05-16 19:25:00,
2013-05-16 15:30:00,70.6,37.6,29.60,WSW,238,27.0,27.0,30,0.00,FEW,,0.00,213.0,WeatherDisplay:10.37,2013-05-16 19:30:00,
2013-05-16 15:35:00,69.9,37.0,29.60,SW,236,18.4,18.4,30,0.00,FEW,,0.00,937.0,WeatherDisplay:10.37,2013-05-16 19:35:00,
2013-05-16 15:40:00,70.3,37.4,29.60,West,269,17.3,17.3,30,0.00,FEW,,0.00,923.0,WeatherDisplay:10.37,2013-05-16 19:40:00,
2013-05-16 15:45:00,70.6,38.5,29.61,WSW,256,19.6,19.6,31,0.00,CLR,,0.00,918.0,WeatherDisplay:10.37,2013-05-16 19:45:00,
2013-05-16 15:50:00,70.6,37.6,29.60,West,261,24.2,24.2,30,0.00,CLR,,0.00,916.0,WeatherDisplay:10.37,2013-05-16 19:50:00,
2013-05-16 15:56:00,70.7,37.7,29.61,West,270,20.7,20.7,30,0.00,CLR,,0.00,874.0,WeatherDisplay:10.37,2013-05-16 19:56:00,
2013-05-16 16:01:00,70.8,37.0,29.61,SW,231,20.7,20.7,29,0.00,FEW,,0.00,802.0,WeatherDisplay:10.37,2013-05-16 20:01:00,
2013-05-16 16:06:00,70.8,37.0,29.61,West,266,21.9,21.9,29,0.00,FEW,,0.00,772.0,WeatherDisplay:10.37,2013-05-16 20:06:00,
2013-05-16 16:11:00,70.8,36.1,29.60,West,259,13.8,13.8,28,0.00,FEW,,0.00,738.0,WeatherDisplay:10.37,2013-05-16 20:11:00,
2013-05-16 16:16:00,70.7,36.0,29.60,SSW,208,19.6,19.6,28,0.00,FEW,,0.00,779.0,WeatherDisplay:10.37,2013-05-16 20:16:00,
2013-05-16 16:21:00,70.8,36.1,29.61,WSW,245,19.6,19.6,28,0.00,FEW,,0.00,744.0,WeatherDisplay:10.37,2013-05-16 20:21:00,
2013-05-16 16:26:00,70.8,37.0,29.60,WSW,253,16.1,16.1,29,0.00,FEW,,0.00,666.0,WeatherDisplay:10.37,2013-05-16 20:26:00,
2013-05-16 16:31:00,70.8,37.0,29.60,West,267,18.4,18.4,29,0.00,SCT,,0.00,691.0,WeatherDisplay:10.37,2013-05-16 20:31:00,
2013-05-16 16:36:00,70.6,35.0,29.60,West,278,19.6,19.6,27,0.00,SCT,,0.00,689.0,WeatherDisplay:10.37,2013-05-16 20:36:00,
2013-05-16 16:41:00,70.7,36.0,29.59,NW,311,15.0,15.0,28,0.00,SCT,,0.00,675.0,WeatherDisplay:10.37,2013-05-16 20:41:00,
2013-05-16 16:46:00,70.8,36.1,29.60,WSW,252,13.8,13.8,28,0.00,SCT,,0.00,654.0,WeatherDisplay:10.37,2013-05-16 20:46:00,
2013-05-16 16:51:00,70.7,36.0,29.60,WNW,299,19.6,19.6,28,0.00,SCT,,0.00,717.0,WeatherDisplay:10.37,2013-05-16 20:51:00,
2013-05-16 16:56:00,70.5,34.9,29.60,WSW,241,19.6,19.6,27,0.00,SCT,,0.00,650.0,WeatherDisplay:10.37,2013-05-16 20:56:00,
2013-05-16 17:01:00,70.2,35.5,29.60,West,278,18.4,18.4,28,0.00,SCT,,0.00,510.0,WeatherDisplay:10.37,2013-05-16 21:01:00,
2013-05-16 17:06:00,69.9,35.3,29.60,West,264,19.6,19.6,28,0.00,SCT,,0.00,545.0,WeatherDisplay:10.37,2013-05-16 21:06:00,
2013-05-16 17:11:00,69.7,35.1,29.61,WSW,249,21.9,21.9,28,0.00,BKN,,0.00,381.0,WeatherDisplay:10.37,2013-05-16 21:11:00,
2013-05-16 17:16:00,69.7,36.0,29.61,WSW,239,19.6,19.6,29,0.00,BKN,,0.00,292.0,WeatherDisplay:10.37,2013-05-16 21:16:00,
2013-05-16 17:21:00,69.3,34.8,29.60,NW,310,19.6,19.6,28,0.00,BKN,,0.00,482.0,WeatherDisplay:10.37,2013-05-16 21:21:00,
2013-05-16 17:26:00,69.3,34.8,29.60,West,263,20.0,20.0,28,0.00,BKN,,0.00,471.0,WeatherDisplay:10.37,2013-05-16 21:26:00,
2013-05-16 17:31:00,69.2,34.7,29.61,WNW,302,19.6,19.6,28,0.00,BKN,,0.00,396.0,WeatherDisplay:10.37,2013-05-16 21:31:00,
2013-05-16 17:36:00,69.3,35.7,29.60,WNW,294,13.8,13.8,29,0.00,BKN,,0.00,473.0,WeatherDisplay:10.37,2013-05-16 21:36:00,
2013-05-16 17:41:00,69.3,35.7,29.60,West,267,13.8,13.8,29,0.00,BKN,,0.00,410.0,WeatherDisplay:10.37,2013-05-16 21:41:00,
2013-05-16 17:46:00,69.1,35.5,29.60,West,263,19.6,19.6,29,0.00,BKN,,0.00,288.0,WeatherDisplay:10.37,2013-05-16 21:46:00,
2013-05-16 17:51:00,68.9,34.4,29.60,WSW,239,24.2,24.2,28,0.00,BKN,,0.00,269.0,WeatherDisplay:10.37,2013-05-16 21:51:00,
2013-05-16 17:56:00,68.4,34.0,29.61,West,273,13.8,13.8,28,0.00,BKN,,0.00,76.0,WeatherDisplay:10.37,2013-05-16 21:56:00,
2013-05-16 18:01:00,68.2,34.7,29.61,West,262,16.1,16.1,29,0.00,BKN,,0.00,250.0,WeatherDisplay:10.37,2013-05-16 22:01:00,
2013-05-16 18:06:00,68.5,35.0,29.60,WSW,255,10.4,10.4,29,0.00,BKN,,0.00,308.0,WeatherDisplay:10.37,2013-05-16 22:06:00,
2013-05-16 18:11:00,68.7,36.8,29.60,West,263,15.0,15.0,31,0.00,BKN,,0.00,343.0,WeatherDisplay:10.37,2013-05-16 22:11:00,
2013-05-16 18:16:00,68.7,33.3,29.60,SSW,205,17.3,17.3,27,0.00,BKN,,0.00,329.0,WeatherDisplay:10.37,2013-05-16 22:16:00,
2013-05-16 18:21:00,68.8,35.2,29.61,WNW,283,17.3,17.3,29,0.00,BKN,,0.00,297.0,WeatherDisplay:10.37,2013-05-16 22:21:00,
2013-05-16 18:26:00,68.6,34.2,29.61,WSW,256,14.0,14.0,28,0.00,BKN,,0.00,250.0,WeatherDisplay:10.37,2013-05-16 22:26:00,
2013-05-16 18:31:00,68.5,34.1,29.61,West,279,17.3,17.3,28,0.00,BKN,,0.00,285.0,WeatherDisplay:10.37,2013-05-16 22:31:00,
2013-05-16 18:36:00,68.2,33.8,29.62,WSW,239,16.0,16.0,28,0.00,BKN,,0.00,236.0,WeatherDisplay:10.37,2013-05-16 22:36:00,
2013-05-16 18:41:00,68.1,34.6,29.62,WNW,287,23.0,23.0,29,0.00,BKN,,0.00,250.0,WeatherDisplay:10.37,2013-05-16 22:41:00,
2013-05-16 18:46:00,68.1,33.7,29.62,West,264,23.0,23.0,28,0.00,BKN,,0.00,243.0,WeatherDisplay:10.37,2013-05-16 22:46:00,
2013-05-16 18:51:00,67.5,33.2,29.62,WSW,258,16.1,16.1,28,0.00,BKN,,0.00,91.0,WeatherDisplay:10.37,2013-05-16 22:51:00,
2013-05-16 18:56:00,67.1,33.8,29.62,West,269,13.0,13.0,29,0.00,BKN,,0.00,90.0,WeatherDisplay:10.37,2013-05-16 22:56:00,
2013-05-16 19:01:00,66.9,32.7,29.62,West,269,14.0,14.0,28,0.00,BKN,,0.00,77.0,WeatherDisplay:10.37,2013-05-16 23:01:00,
2013-05-16 19:06:00,66.8,33.5,29.63,West,263,13.0,13.0,29,0.00,BKN,,0.00,169.0,WeatherDisplay:10.37,2013-05-16 23:06:00,
2013-05-16 19:12:00,66.3,39.2,29.64,WNW,295,11.5,11.5,37,0.00,BKN,,0.00,155.0,WeatherDisplay:10.37,2013-05-16 23:12:00,
2013-05-16 19:17:00,65.5,39.9,29.64,NW,324,9.2,9.2,39,0.00,BKN,,0.00,120.0,WeatherDisplay:10.37,2013-05-16 23:17:00,
2013-05-16 19:22:00,64.4,40.8,29.65,West,263,9.2,9.2,42,0.00,BKN,,0.00,105.0,WeatherDisplay:10.37,2013-05-16 23:22:00,
2013-05-16 19:27:00,63.3,40.4,29.65,West,268,11.0,11.0,43,0.00,BKN,,0.00,83.0,WeatherDisplay:10.37,2013-05-16 23:27:00,
2013-05-16 19:32:00,62.6,40.4,29.65,West,261,10.4,10.4,44,0.00,BKN,,0.00,76.0,WeatherDisplay:10.37,2013-05-16 23:32:00,
2013-05-16 19:37:00,61.2,40.8,29.67,WSW,257,10.4,10.4,47,0.00,BKN,,0.00,53.0,WeatherDisplay:10.37,2013-05-16 23:37:00,
2013-05-16 19:42:00,60.4,41.1,29.67,WNW,292,5.8,5.8,49,0.00,,,0.00,40.0,WeatherDisplay:10.37,2013-05-16 23:42:00,
2013-05-16 19:47:00,59.9,41.2,29.67,WNW,287,19.6,19.6,50,0.00,,,0.00,28.0,WeatherDisplay:10.37,2013-05-16 23:47:00,
2013-05-16 19:52:00,58.5,41.4,29.68,West,265,9.0,9.0,53,0.00,,,0.00,12.0,WeatherDisplay:10.37,2013-05-16 23:52:00,
2013-05-16 19:57:00,57.8,41.3,29.68,West,277,11.5,11.5,54,0.00,,,0.00,11.0,WeatherDisplay:10.37,2013-05-16 23:57:00,
2013-05-16 20:02:00,57.2,41.6,29.69,WSW,252,8.1,8.1,56,0.00,,,0.00,7.0,WeatherDisplay:10.37,2013-05-17 00:02:00,
2013-05-16 20:07:00,56.7,42.1,29.70,West,261,11.5,11.5,58,0.00,,,0.00,5.0,WeatherDisplay:10.37,2013-05-17 00:07:00,
2013-05-16 20:12:00,56.2,42.1,29.70,WSW,249,6.9,6.9,59,0.00,,,0.00,0.0,WeatherDisplay:10.37,2013-05-17 00:12:00,
2013-05-16 20:17:00,55.8,42.1,29.70,WSW,237,8.1,8.1,60,0.00,,,0.00,0.0,WeatherDisplay:10.37,2013-05-17 00:17:00,
2013-05-16 20:22:00,55.4,42.2,29.70,West,274,11.5,11.5,61,0.00,,,0.00,0.0,WeatherDisplay:10.37,2013-05-17 00:22:00,
2013-05-16 20:27:00,55.2,42.4,29.71,West,277,9.0,9.0,62,0.00,,,0.00,0.0,WeatherDisplay:10.37,2013-05-17 00:27:00,
2013-05-16 20:32:00,55.0,42.2,29.71,West,271,11.5,11.5,62,0.00,,,0.00,0.0,WeatherDisplay:10.37,2013-05-17 00:32:00,
2013-05-16 20:37:00,54.7,42.3,29.71,WNW,284,8.1,8.1,63,0.00,,,0.00,0.0,WeatherDisplay:10.37,2013-05-17 00:37:00,
2013-05-16 20:42:00,54.5,42.2,29.71,WSW,250,8.1,8.1,63,0.00,,,0.00,0.0,WeatherDisplay:10.37,2013-05-17 00:42:00,
2013-05-16 20:47:00,54.2,42.3,29.72,West,279,8.0,8.0,64,0.00,,,0.00,0.0,WeatherDisplay:10.37,2013-05-17 00:47:00,
2013-05-16 20:52:00,54.0,42.1,29.72,WSW,256,10.4,10.4,64,0.00,,,0.00,0.0,WeatherDisplay:10.37,2013-05-17 00:52:00,
2013-05-16 20:57:00,53.8,42.3,29.72,WNW,294,9.2,9.2,65,0.00,,,0.00,0.0,WeatherDisplay:10.37,2013-05-17 00:57:00,
2013-05-16 21:02:00,53.6,42.1,29.73,WSW,252,10.4,10.4,65,0.00,,,0.00,0.0,WeatherDisplay:10.37,2013-05-17 01:02:00,
2013-05-16 21:07:00,53.4,41.9,29.73,West,274,6.9,6.9,65,0.00,,,0.00,0.0,WeatherDisplay:10.37,2013-05-17 01:07:00,
2013-05-16 21:12:00,53.2,41.7,29.73,West,273,6.0,6.0,65,0.00,,,0.00,0.0,WeatherDisplay:10.37,2013-05-17 01:12:00,
2013-05-16 21:17:00,53.0,41.9,29.73,WSW,252,8.1,8.1,66,0.00,,,0.00,0.0,WeatherDisplay:10.37,2013-05-17 01:17:00,
2013-05-16 21:22:00,52.8,41.7,29.74,West,262,6.0,6.0,66,0.00,,,0.00,0.0,WeatherDisplay:10.37,2013-05-17 01:22:00,
2013-05-16 21:27:00,52.7,41.7,29.74,West,277,6.9,6.9,66,0.00,,,0.00,0.0,WeatherDisplay:10.37,2013-05-17 01:27:00,
2013-05-16 21:32:00,52.6,41.9,29.75,West,280,8.1,8.1,67,0.00,,,0.00,0.0,WeatherDisplay:10.37,2013-05-17 01:32:00,
2013-05-16 21:37:00,52.4,41.8,29.75,WSW,252,7.0,7.0,67,0.00,,,0.00,0.0,WeatherDisplay:10.37,2013-05-17 01:37:00,
2013-05-16 21:42:00,52.2,42.0,29.75,WSW,257,8.1,8.1,68,0.00,,,0.00,0.0,WeatherDisplay:10.37,2013-05-17 01:42:00,
2013-05-16 21:47:00,51.9,41.7,29.75,West,271,7.0,7.0,68,0.00,,,0.00,0.0,WeatherDisplay:10.37,2013-05-17 01:47:00,
2013-05-16 21:52:00,51.7,41.9,29.76,West,271,5.8,5.8,69,0.00,,,0.00,0.0,WeatherDisplay:10.37,2013-05-17 01:52:00,
2013-05-16 21:57:00,51.5,41.7,29.76,WSW,251,12.7,12.7,69,0.00,,,0.00,0.0,WeatherDisplay:10.37,2013-05-17 01:57:00,
2013-05-16 22:02:00,51.4,41.6,29.76,WSW,248,9.2,9.2,69,0.00,CLR,,0.00,0.0,WeatherDisplay:10.37,2013-05-17 02:02:00,
2013-05-16 22:07:00,51.3,41.5,29.76,West,261,5.0,5.0,69,0.00,CLR,,0.00,0.0,WeatherDisplay:10.37,2013-05-17 02:07:00,
2013-05-16 22:12:00,51.1,41.3,29.76,WSW,252,6.0,6.0,69,0.00,CLR,,0.00,0.0,WeatherDisplay:10.37,2013-05-17 02:12:00,
2013-05-16 22:17:00,50.9,41.5,29.76,WNW,286,6.0,6.0,70,0.00,CLR,,0.00,0.0,WeatherDisplay:10.37,2013-05-17 02:17:00,
2013-05-16 22:22:00,50.8,41.4,29.76,West,279,6.9,6.9,70,0.00,CLR,,0.00,0.0,WeatherDisplay:10.37,2013-05-17 02:22:00,
2013-05-16 22:27:00,50.7,41.3,29.76,WSW,254,3.5,3.5,70,0.00,CLR,,0.00,0.0,WeatherDisplay:10.37,2013-05-17 02:27:00,
2013-05-16 22:32:00,50.5,41.1,29.76,WSW,240,5.8,5.8,70,0.00,CLR,,0.00,0.0,WeatherDisplay:10.37,2013-05-17 02:32:00,
2013-05-16 22:37:00,50.4,41.0,29.76,WSW,240,2.3,2.3,70,0.00,CLR,,0.00,0.0,WeatherDisplay:10.37,2013-05-17 02:37:00,
2013-05-16 22:42:00,50.1,41.1,29.76,WSW,240,3.5,3.5,71,0.00,CLR,,0.00,0.0,WeatherDisplay:10.37,2013-05-17 02:42:00,
2013-05-16 22:47:00,49.9,40.9,29.76,WNW,296,4.0,4.0,71,0.00,CLR,,0.00,0.0,WeatherDisplay:10.37,2013-05-17 02:47:00,
2013-05-16 22:52:00,49.8,40.8,29.77,WSW,244,4.0,4.0,71,0.00,CLR,,0.00,0.0,WeatherDisplay:10.37,2013-05-17 02:52:00,
2013-05-16 22:57:00,49.7,40.7,29.77,WSW,246,3.5,3.5,71,0.00,CLR,,0.00,0.0,WeatherDisplay:10.37,2013-05-17 02:57:00,
2013-05-16 23:02:00,49.6,40.6,29.77,West,275,9.2,9.2,71,0.00,,,0.00,0.0,WeatherDisplay:10.37,2013-05-17 03:02:00,
2013-05-16 23:07:00,49.6,40.6,29.77,WSW,251,2.0,2.0,71,0.00,,,0.00,0.0,WeatherDisplay:10.37,2013-05-17 03:07:00,
2013-05-16 23:12:00,49.4,40.0,29.78,WSW,240,4.0,4.0,70,0.00,,,0.00,0.0,WeatherDisplay:10.37,2013-05-17 03:12:00,
2013-05-16 23:17:00,49.4,40.0,29.78,WNW,286,4.6,4.6,70,0.00,,,0.00,0.0,WeatherDisplay:10.37,2013-05-17 03:17:00,
2013-05-16 23:22:00,49.3,39.9,29.78,West,280,9.0,9.0,70,0.00,,,0.00,0.0,WeatherDisplay:10.37,2013-05-17 03:22:00,
2013-05-16 23:27:00,49.2,39.8,29.78,West,259,5.8,5.8,70,0.00,,,0.00,0.0,WeatherDisplay:10.37,2013-05-17 03:27:00,
2013-05-16 23:32:00,49.2,39.8,29.78,West,260,9.2,9.2,70,0.00,,,0.00,0.0,WeatherDisplay:10.37,2013-05-17 03:32:00,
2013-05-16 23:37:00,49.0,39.6,29.78,WSW,255,5.0,5.0,70,0.00,,,0.00,0.0,WeatherDisplay:10.37,2013-05-17 03:37:00,
2013-05-16 23:42:00,48.9,39.2,29.78,West,267,6.9,6.9,69,0.00,,,0.00,0.0,WeatherDisplay:10.37,2013-05-17 03:42:00,
2013-05-16 23:47:00,48.9,39.2,29.78,West,273,8.1,8.1,69,0.00,,,0.00,0.0,WeatherDisplay:10.37,2013-05-17 03:47:00,
2013-05-16 23:52:00,48.8,39.1,29.78,West,281,8.1,8.1,69,0.00,,,0.00,0.0,WeatherDisplay:10.37,2013-05-17 03:52:00,
2013-05-16 23:57:00,48.7,39.0,29.78,WNW,292,6.9,6.9,69,0.00,,,0.00,0.0,WeatherDisplay:10.37,2013-05-17 03:57:00,